CZ-4C R/B, 57655

Orbit data source: Space-Track

CZ-4C R/B, 57655 is space debris in SSO originally from a launch on Sun, 20 Aug 2023 UTC launched from the Jiuquan Satellite Launch Center, China (JSC). Debris objects in space refer to the collection of defunct objects orbiting the Earth. Examples of debris include non-operational satellites, rocket bodies, and fragments generated from explosions, collisions, or faulty payload assembly.

Loading next visibility...
Identifier
57655, 2023-123B
Orbit
SSO
Country
Flag of CNCN / PRC
Related business
Manufacturer
SAST
Mission
Spacecraft
Bus & Motor
CZ-4 STAGE 3, Unknown motor
Mass
~1,000 kg wet, ~1,000 kg dry
Launch date (UTC)
2023-08-20 (2 years ago)
Launch vehicle
Unknown
Launch site
Jiuquan Satellite Launch Center, China (JSC)
Object type
Payload
Rocket body
Debris
Shape & HBR
Cyl, 1.4 m
Radar Cross Section
7.676 m², Large (>1 m²)

Expand to show TLE details & history
Last TLE update: 14 hours ago

TLE from 14 hours ago
0 CZ-4C R/B
1 57655U 23123B   25309.88805730  .00013556  00000-0  40508-3 0  9997
2 57655  97.9508 276.9433 0067658 141.6150 218.9933 15.32433740122790
Epoch: 2025-11-05T21:18Z
TLE epoch observation values (Epoch: 2025-11-05T21:18:48.150Z)
Latitude
-0.00004°
Longitude
-88.11159°
Altitude
507.78 km
Speed
7.59 km/s
True Right ascension
18h 27m 46s
True Declination
0° 00' 00"
Sunlit
Object was in daylight at epoch
Visualization orbit readout
Latitude
Unknown
Longitude
Unknown
Altitude
Unknown
Speed
Unknown
Apparent Right ascension
Unknown
Apparent Declination
Unknown
Sunlit
N/A
Visualization observer readout
Local Sidereal Time
07:14:29
Azimuth
Unknown
Elevation
Unknown
Doppler factor
Unknown
Orbital elements
Apogee altitude
511.83 km
Perigee altitude
419.224 km
Semi-major axis
6,843.664 km
Eccentricity
0.00677
Inclination
97.9508°
RAAN
276.9433°
Arg. of periapsis
141.615°
True anomaly
218.50865°
Mean anomaly
218.9933°
Eccentric anomaly
218.75066°
Mean motion
3.83363 °/min
Orbital period
93.91 mins
BSTAR
0.00040508
Loading maneuver chart data...
Computing Atmospheric mass density...
Loading historical data...
Loading historical data...
Loading historical data...
Loading historical data...
Loading historical data...
Loading historical data...
Loading historical data...
Other satellites on launch #123 in the year 2023 (2023-08-20 UTC)

Documentation

Showing up to 5 results
|